Location: Newark
(51.3318°N, 0.0053°E)
Time: 21:46:48
(UTC+00:00)

STRAND 1 - Pass Details

Date: 04 July 2022
Orbit: 767 x 781 km, 98.4° (Epoch: 09 August)

Event Time Altitude Azimuth Distance (km) Brightness Sun altitude
Rises 21:15:13 0° 3° (N) 3,274 ? -7.1°
Reaches altitude 10° 21:18:39 10° 339° (NNW) 2,338 ? -7.4°
Maximum altitude 21:21:10 14° 310° (NW) 2,074 ? -7.6°
Drops below altitude 10° 21:23:41 10° 280° (W) 2,327 ? -7.9°
Sets 21:27:06 0° 256° (WSW) 3,246 ? -8.2°
